DELTA 1 DEB, 27788

Orbit data source: Space-Track

DELTA 1 DEB, 27788 is space debris in LEO originally from a launch on Sat, 06 Nov 1965 UTC launched from the Air Force Eastern Test Range (AFETR). Debris objects in space refer to the collection of defunct objects orbiting the Earth. Examples of debris include non-operational satellites, rocket bodies, and fragments generated from explosions, collisions, or faulty payload assembly.

Loading next visibility...
Identifier
27788, 1965-089E
Orbit
LEO
Last TLE update
6 months ago
Origin
Manufacturer
Unknown
Mission
Spacecraft
Bus & Motor
Unknown
Mass
Unknown
Launch date (UTC)
1965-11-06 (60 years ago)
Launch vehicle
Unknown
Launch site
Air Force Eastern Test Range (AFETR)
Object type
Payload
Rocket body
Debris
Shape & HBR
Unknown
Radar Cross Section
Small (<0.1 m²)

Expand to show TLE details & history

TLE from 6 months ago
0 DELTA 1 DEB
1 27788U 65089E   24355.68815587  .00000327  00000-0  19033-2 0  9997
2 27788  59.3860 334.6826 0615575 217.0709 321.5455 12.28013798547116
Epoch: 2024-12-20T16:30Z
TLE epoch observation values (Epoch: 2024-12-20T16:30:56.667Z)
Latitude
5.14849°
Longitude
174.15588°
Altitude
1,188.603 km
Speed
7.428 km/s
True Right ascension
10h 06m 34s
True Declination
5° 07' 11"
Sunlit
Object was in daylight at epoch
Visualization orbit readout
Latitude
-33.96213°
Longitude
-124.72366°
Altitude
1,139.156 km
Speed
7.478 km/s
Apparent Right ascension
12h 20m 35s
Apparent Declination
-41° 01' 25"
Sunlit
Object is in daylight
Visualization observer readout
Local Sidereal Time
21:55:48
Azimuth
255.798° W
Elevation
-62.642°
Doppler factor
1
Orbital elements
Apogee altitude
2,045.692 km
Perigee altitude
1,068.732 km
Semi-major axis
7,935.349 km
Eccentricity
0.06156
Inclination
59.386°
RAAN
334.6826°
Arg. of periapsis
217.0709°
True anomaly
Unknown
Mean anomaly
321.5455°
Eccentric anomaly
Unknown
Mean motion
3.07039 °/min
Orbital period
117.25 mins
BSTAR
0.0019033
Loading maneuver chart data...
Loading SW <> Apogee altitude chart data...
Loading historical data...
Loading historical data...
Loading historical data...
Loading historical data...
Loading historical data...
Loading historical data...
Loading historical data...

DELTA 1 DEB Visibility forecast

Observer location: undefined°, undefined°

Span
Click to sort rows by Start time (UTC) header in descending order
Start Az.
Max El. time (UTC)
Max El. Az.
Max El.
End time (UTC)
End Az.
16 mins2025-07-01 10:53:23.317Z323.964° NNW2025-07-01 11:00:23.317Z15.138° NNE24.394°2025-07-01 11:09:23.317Z70.871° E
20 mins2025-07-01 12:56:23.317Z326.111° NNW2025-07-01 13:05:23.317Z45.004° ENE40.086°2025-07-01 13:16:23.317Z118.654° SE
19 mins2025-07-01 14:59:23.317Z308.029° NW2025-07-01 15:07:23.317Z245.825° WSW38.505°2025-07-01 15:18:23.317Z170.086° S
10 mins2025-07-02 04:11:23.317Z153.196° SSE2025-07-02 04:15:23.317Z112.282° ESE22.391°2025-07-02 04:21:23.317Z61.953° ENE
14 mins2025-07-02 06:10:23.317Z231.216° WSW2025-07-02 06:16:23.317Z315.192° NNW43.469°2025-07-02 06:24:23.317Z37.364° NE
12 mins2025-07-02 08:15:23.317Z296.632° NW2025-07-02 08:20:23.317Z344.121° N24.782°2025-07-02 08:27:23.317Z34.603° NE
|